Regional Weather Roundup
Issued by NWS

Home | Current Version | Previous Version | Text Only | Print | Product List | Glossary On
Versions: 1 2 3 4 5 6 7 8 9 10 11 12 13 14 15 16 17 18 19 20 21 22 23 24 25 26 27 28 29 30 31 32 33 34 35 36 37 38 39 40 41 42 43 44 45 46 47 48 49 50
000
ASUS44 KOUN 231610
RWROK

WEATHER ROUNDUP FOR OKLAHOMA
NATIONAL WEATHER SERVICE NORMAN OK
1100 AM CDT SAT AUG 23 2014

NOTE: "FAIR" INDICATES FEW OR NO CLOUDS BELOW 12,000 FEET WITH NO
      SIGNIFICANT WEATHER AND/OR OBSTRUCTIONS TO VISIBILITY.

OKZ001>007-009>012-014-015-017-231700-
NORTHWEST OKLAHOMA AND THE PANHANDLE

CITY           SKY/WX    TMP DP  RH WIND       PRES   REMARKS
GAGE           MOSUNNY   92  56  29 S21       29.93S HX  90
ENID/WOODRING  SUNNY    106  57  20 S21G26    29.91S HX 105
$$

OKZ016-021>023-033>039-044-045-231700-
SOUTHWEST OKLAHOMA

CITY           SKY/WX    TMP DP  RH WIND       PRES   REMARKS
LAWTON/REGL    SUNNY     92  58  31 SW14G22   29.97S HX  91
LAWTON/FT SILL SUNNY     92  60  33 S12G17    29.96F HX  92
FREDERICK      SUNNY     93  60  33 SW22      29.94S HX  93
CLINTON        SUNNY     92  52  25 SW25G36   29.97S
HOBART         SUNNY     92  58  31 SW20G29   29.96F HX  91
ALTUS AFB      MOSUNNY   93  60  32 SW18      29.96S HX  93
$$

OKZ018>020-024>031-231700-
CENTRAL OKLAHOMA

CITY           SKY/WX    TMP DP  RH WIND       PRES   REMARKS
OKLAHOMA CITY  SUNNY     90  61  37 SW15      29.98R HX  90
OKC/WILEY POST SUNNY     89  62  40 SW16      29.97S
OKC/TINKER AFB SUNNY     89  63  42 S15       29.99R
STILLWATER     SUNNY     93  62  35 S13       29.95S HX  93
GUTHRIE        SUNNY     91  61  36 S15G21    29.95S HX  91
$$

OKZ008-013-054>072-231700-
NORTHEAST OKLAHOMA

CITY           SKY/WX    TMP DP  RH WIND       PRES   REMARKS
TULSA          SUNNY     91  65  41 SW13G18   29.95S HX  93
TULSA/JONES    SUNNY     90  65  43 SW8G18    29.97R HX  92
PONCA CITY     SUNNY     91  59  33 SW15G22   29.92F HX  90
BARTLESVILLE   SUNNY     91  66  43 S12G18    29.96S HX  93
MUSKOGEE       SUNNY     89  69  51 SW13      30.01R HX  93
$$

OKZ032-040>043-046>053-073>077-231700-
SOUTH CENTRAL/SOUTHEAST OKLAHOMA

CITY           SKY/WX    TMP DP  RH WIND       PRES   REMARKS
ARDMORE/DWNTWN SUNNY     88  59  37 W6        29.99S
MCALESTER      SUNNY     89  67  47 SW16      30.01R HX  92
$$



USA.gov is the U.S. government's official web portal to all federal, state and local government web resources and services.